Time,TemperatureF,DewpointF,PressureIn,WindDirection,WindDirectionDegrees,WindSpeedMPH,WindSpeedGustMPH,Humidity,HourlyPrecipIn,Conditions,Clouds,dailyrainin,SoftwareType,DateUTC
2013-06-09 00:00:00,53.2,52.0,30.01,ENE,67,0.0,1.0,97,0.00,,,0.00,weatherlink.com 1.10,2013-06-09 04:00:00,
2013-06-09 00:15:00,53.2,52.0,30.01,ENE,67,0.0,1.0,97,0.00,,,0.00,weatherlink.com 1.10,2013-06-09 04:15:00,
2013-06-09 00:30:00,53.2,52.0,30.01,ENE,67,0.0,0.0,97,0.00,,,0.00,weatherlink.com 1.10,2013-06-09 04:30:00,
2013-06-09 00:45:00,53.2,52.0,30.01,ENE,67,0.0,1.0,97,0.00,,,0.00,weatherlink.com 1.10,2013-06-09 04:45:00,
2013-06-09 01:00:00,53.2,52.0,30.01,ENE,67,0.0,0.0,97,0.00,,,0.00,weatherlink.com 1.10,2013-06-09 05:00:00,
2013-06-09 01:15:00,53.2,52.0,30.01,ENE,67,0.0,0.0,97,0.00,,,0.00,weatherlink.com 1.10,2013-06-09 05:15:00,
2013-06-09 01:30:00,53.2,52.0,30.02,ENE,66,0.0,0.0,97,0.00,,,0.00,weatherlink.com 1.10,2013-06-09 05:30:00,
2013-06-09 01:45:00,53.2,52.0,30.02,ENE,67,0.0,0.0,97,0.03,,,0.03,weatherlink.com 1.10,2013-06-09 05:45:00,
2013-06-09 02:00:00,53.2,52.0,30.02,ENE,67,0.0,0.0,97,0.04,,,0.04,weatherlink.com 1.10,2013-06-09 06:00:00,
2013-06-09 02:15:00,53.2,52.0,30.03,ENE,67,0.0,0.0,97,0.07,,,0.07,weatherlink.com 1.10,2013-06-09 06:15:00,
2013-06-09 02:31:00,53.2,52.0,30.03,ENE,66,0.0,0.0,97,0.07,,,0.07,weatherlink.com 1.10,2013-06-09 06:31:00,
2013-06-09 02:46:00,53.2,52.0,30.02,ENE,65,0.0,1.0,97,0.04,,,0.07,weatherlink.com 1.10,2013-06-09 06:46:00,
2013-06-09 03:01:00,53.2,52.0,30.02,ENE,65,0.0,0.0,97,0.03,,,0.07,weatherlink.com 1.10,2013-06-09 07:01:00,
2013-06-09 03:16:00,53.2,52.0,30.02,ENE,65,0.0,0.0,97,0.00,,,0.07,weatherlink.com 1.10,2013-06-09 07:16:00,
2013-06-09 03:31:00,53.1,52.0,30.01,ENE,65,0.0,0.0,97,0.00,,,0.07,weatherlink.com 1.10,2013-06-09 07:31:00,
2013-06-09 03:46:00,53.0,52.0,30.02,ENE,65,0.0,0.0,97,0.01,,,0.08,weatherlink.com 1.10,2013-06-09 07:46:00,
2013-06-09 04:01:00,53.0,52.0,30.03,ENE,65,0.0,0.0,97,0.01,,,0.08,weatherlink.com 1.10,2013-06-09 08:01:00,
2013-06-09 04:16:00,53.0,52.0,30.03,ENE,65,0.0,0.0,97,0.01,,,0.08,weatherlink.com 1.10,2013-06-09 08:16:00,
2013-06-09 04:31:00,53.1,52.0,30.03,ENE,65,0.0,0.0,97,0.01,,,0.08,weatherlink.com 1.10,2013-06-09 08:31:00,
2013-06-09 04:46:00,53.1,52.0,30.04,ENE,65,0.0,1.0,97,0.00,,,0.08,weatherlink.com 1.10,2013-06-09 08:46:00,
2013-06-09 05:01:00,53.4,53.0,30.04,ENE,65,0.0,1.0,97,0.00,,,0.08,weatherlink.com 1.10,2013-06-09 09:01:00,
2013-06-09 05:16:00,53.4,53.0,30.04,NE,56,0.0,1.0,97,0.00,,,0.08,weatherlink.com 1.10,2013-06-09 09:16:00,
2013-06-09 05:31:00,53.3,53.0,30.05,NE,55,0.0,0.0,97,0.00,,,0.08,weatherlink.com 1.10,2013-06-09 09:31:00,
2013-06-09 05:46:00,53.4,53.0,30.05,ESE,111,0.0,1.0,97,0.00,,,0.08,weatherlink.com 1.10,2013-06-09 09:46:00,
2013-06-09 06:01:00,53.4,53.0,30.06,ESE,111,0.0,0.0,97,0.00,,,0.08,weatherlink.com 1.10,2013-06-09 10:01:00,
2013-06-09 06:16:00,53.5,53.0,30.05,ESE,111,0.0,0.0,97,0.00,,,0.08,weatherlink.com 1.10,2013-06-09 10:16:00,
2013-06-09 06:31:00,53.5,53.0,30.05,ESE,111,0.0,0.0,97,0.00,,,0.08,weatherlink.com 1.10,2013-06-09 10:31:00,
2013-06-09 06:46:00,53.9,53.0,30.06,ESE,110,0.0,1.0,97,0.00,,,0.08,weatherlink.com 1.10,2013-06-09 10:46:00,
2013-06-09 07:01:00,54.3,54.0,30.06,ESE,111,0.0,1.0,97,0.00,,,0.08,weatherlink.com 1.10,2013-06-09 11:01:00,
2013-06-09 07:16:00,54.6,54.0,30.06,West,281,0.0,2.0,97,0.00,,,0.08,weatherlink.com 1.10,2013-06-09 11:16:00,
2013-06-09 07:31:00,54.7,54.0,30.07,SW,236,0.0,1.0,97,0.00,,,0.08,weatherlink.com 1.10,2013-06-09 11:31:00,
2013-06-09 07:46:00,54.5,54.0,30.07,ENE,69,0.0,1.0,97,0.00,,,0.08,weatherlink.com 1.10,2013-06-09 11:46:00,
2013-06-09 08:01:00,54.4,54.0,30.08,WNW,288,0.0,1.0,97,0.00,,,0.08,weatherlink.com 1.10,2013-06-09 12:01:00,
2013-06-09 08:16:00,54.7,54.0,30.08,ENE,63,0.0,1.0,97,0.00,,,0.08,weatherlink.com 1.10,2013-06-09 12:16:00,
2013-06-09 08:31:00,55.0,54.0,30.09,SW,221,0.0,1.0,97,0.00,,,0.08,weatherlink.com 1.10,2013-06-09 12:31:00,
2013-06-09 08:46:00,55.3,55.0,30.10,NE,56,0.0,1.0,97,0.00,,,0.08,weatherlink.com 1.10,2013-06-09 12:46:00,
2013-06-09 09:01:00,55.5,55.0,30.10,North,358,0.0,1.0,97,0.00,,,0.08,weatherlink.com 1.10,2013-06-09 13:01:00,
2013-06-09 09:16:00,55.3,55.0,30.10,ESE,108,0.0,1.0,97,0.00,,,0.08,weatherlink.com 1.10,2013-06-09 13:16:00,
2013-06-09 09:31:00,55.8,55.0,30.10,SW,231,0.0,1.0,97,0.00,,,0.08,weatherlink.com 1.10,2013-06-09 13:31:00,
2013-06-09 09:46:00,56.0,55.0,30.10,East,98,0.0,1.0,96,0.00,,,0.08,weatherlink.com 1.10,2013-06-09 13:46:00,
2013-06-09 10:01:00,56.5,55.0,30.10,ENE,66,0.0,2.0,95,0.00,,,0.08,weatherlink.com 1.10,2013-06-09 14:01:00,
2013-06-09 10:16:00,56.6,55.0,30.11,East,98,0.0,1.0,95,0.00,,,0.08,weatherlink.com 1.10,2013-06-09 14:16:00,
2013-06-09 10:31:00,56.6,55.0,30.10,East,97,0.0,0.0,94,0.00,,,0.08,weatherlink.com 1.10,2013-06-09 14:31:00,
2013-06-09 10:46:00,56.4,55.0,30.10,ESE,102,0.0,0.0,94,0.00,,,0.08,weatherlink.com 1.10,2013-06-09 14:46:00,
2013-06-09 11:01:00,56.2,55.0,30.11,ESE,102,0.0,0.0,95,0.00,,,0.08,weatherlink.com 1.10,2013-06-09 15:01:00,
2013-06-09 11:16:00,56.8,55.0,30.11,East,101,0.0,0.0,95,0.00,,,0.08,weatherlink.com 1.10,2013-06-09 15:16:00,
2013-06-09 11:32:00,58.9,57.0,30.11,ENE,70,0.0,1.0,94,0.00,,,0.08,weatherlink.com 1.10,2013-06-09 15:32:00,
2013-06-09 11:46:00,61.2,59.0,30.11,SE,124,0.0,2.0,91,0.00,,,0.08,weatherlink.com 1.10,2013-06-09 15:46:00,
2013-06-09 12:02:00,61.1,57.0,30.10,SE,141,1.0,2.0,86,0.00,,,0.08,weatherlink.com 1.10,2013-06-09 16:02:00,
2013-06-09 12:17:00,60.9,58.0,30.11,SE,127,1.0,2.0,89,0.00,,,0.08,weatherlink.com 1.10,2013-06-09 16:17:00,
2013-06-09 12:32:00,61.6,57.0,30.11,SSE,149,1.0,2.0,85,0.00,,,0.08,weatherlink.com 1.10,2013-06-09 16:32:00,
2013-06-09 12:47:00,61.7,58.0,30.10,SE,131,1.0,2.0,88,0.00,,,0.08,weatherlink.com 1.10,2013-06-09 16:47:00,
2013-06-09 13:02:00,63.0,59.0,30.10,West,273,0.0,2.0,85,0.00,,,0.08,weatherlink.com 1.10,2013-06-09 17:02:00,
2013-06-09 13:17:00,63.1,58.0,30.10,NNW,346,0.0,5.0,82,0.00,,,0.08,weatherlink.com 1.10,2013-06-09 17:17:00,
2013-06-09 13:32:00,64.3,59.0,30.10,NNW,346,0.0,3.0,84,0.00,,,0.08,weatherlink.com 1.10,2013-06-09 17:32:00,
2013-06-09 13:47:00,65.3,59.0,30.09,WSW,240,0.0,4.0,80,0.00,,,0.08,weatherlink.com 1.10,2013-06-09 17:47:00,
2013-06-09 14:02:00,66.1,56.0,30.09,West,260,0.0,3.0,70,0.00,,,0.08,weatherlink.com 1.10,2013-06-09 18:02:00,
2013-06-09 14:17:00,66.8,57.0,30.09,SSW,212,1.0,5.0,71,0.00,,,0.08,weatherlink.com 1.10,2013-06-09 18:17:00,
2013-06-09 14:32:00,65.8,56.0,30.09,NW,307,2.0,5.0,70,0.00,,,0.08,weatherlink.com 1.10,2013-06-09 18:32:00,
2013-06-09 14:47:00,67.5,56.0,30.09,SE,131,1.0,3.0,67,0.00,,,0.08,weatherlink.com 1.10,2013-06-09 18:47:00,
2013-06-09 15:02:00,66.7,57.0,30.08,WNW,295,0.0,3.0,70,0.00,,,0.08,weatherlink.com 1.10,2013-06-09 19:02:00,
2013-06-09 15:17:00,67.5,56.0,30.09,SE,136,0.0,2.0,67,0.00,,,0.08,weatherlink.com 1.10,2013-06-09 19:17:00,
2013-06-09 15:32:00,68.1,56.0,30.09,WNW,284,0.0,4.0,66,0.00,,,0.08,weatherlink.com 1.10,2013-06-09 19:32:00,
2013-06-09 15:47:00,68.6,54.0,30.09,NW,307,4.0,5.0,60,0.00,,,0.08,weatherlink.com 1.10,2013-06-09 19:47:00,
2013-06-09 16:02:00,67.6,54.0,30.09,WNW,284,0.0,4.0,63,0.00,,,0.08,weatherlink.com 1.10,2013-06-09 20:02:00,
2013-06-09 16:17:00,66.4,55.0,30.09,WNW,297,0.0,3.0,67,0.00,,,0.08,weatherlink.com 1.10,2013-06-09 20:17:00,
2013-06-09 16:32:00,66.3,54.0,30.09,West,278,0.0,3.0,64,0.00,,,0.08,weatherlink.com 1.10,2013-06-09 20:32:00,
2013-06-09 16:47:00,66.6,56.0,30.09,SSE,159,0.0,3.0,68,0.00,,,0.08,weatherlink.com 1.10,2013-06-09 20:47:00,
2013-06-09 17:02:00,67.6,53.0,30.09,NW,315,1.0,2.0,60,0.00,,,0.08,weatherlink.com 1.10,2013-06-09 21:02:00,
2013-06-09 17:17:00,67.0,53.0,30.09,North,354,0.0,3.0,61,0.00,,,0.08,weatherlink.com 1.10,2013-06-09 21:17:00,
2013-06-09 17:32:00,66.5,53.0,30.10,NW,325,0.0,1.0,62,0.00,,,0.08,weatherlink.com 1.10,2013-06-09 21:32:00,
2013-06-09 17:47:00,66.6,55.0,30.09,NW,325,0.0,1.0,66,0.00,,,0.08,weatherlink.com 1.10,2013-06-09 21:47:00,
2013-06-09 18:02:00,67.0,52.0,30.09,North,350,1.0,3.0,60,0.00,,,0.08,weatherlink.com 1.10,2013-06-09 22:02:00,
2013-06-09 18:17:00,67.2,52.0,30.10,North,359,3.0,4.0,58,0.00,,,0.08,weatherlink.com 1.10,2013-06-09 22:17:00,
2013-06-09 18:32:00,67.1,51.0,30.09,WNW,285,1.0,4.0,57,0.00,,,0.08,weatherlink.com 1.10,2013-06-09 22:32:00,
2013-06-09 18:47:00,66.9,52.0,30.10,North,350,0.0,3.0,59,0.00,,,0.08,weatherlink.com 1.10,2013-06-09 22:47:00,
2013-06-09 19:02:00,65.9,53.0,30.10,NW,319,1.0,3.0,64,0.00,,,0.08,weatherlink.com 1.10,2013-06-09 23:02:00,
2013-06-09 19:17:00,66.1,52.0,30.10,NW,312,1.0,5.0,61,0.00,,,0.08,weatherlink.com 1.10,2013-06-09 23:17:00,
2013-06-09 19:32:00,63.8,54.0,30.11,North,9,0.0,1.0,71,0.00,,,0.08,weatherlink.com 1.10,2013-06-09 23:32:00,
2013-06-09 19:47:00,61.9,56.0,30.11,North,9,0.0,1.0,81,0.00,,,0.08,weatherlink.com 1.10,2013-06-09 23:47:00,
2013-06-09 20:02:00,60.7,55.0,30.11,North,9,0.0,1.0,82,0.00,,,0.08,weatherlink.com 1.10,2013-06-10 00:02:00,
2013-06-09 20:17:00,59.6,54.0,30.11,North,9,0.0,1.0,83,0.00,,,0.08,weatherlink.com 1.10,2013-06-10 00:17:00,
2013-06-09 20:32:00,58.6,54.0,30.12,NNE,12,0.0,1.0,84,0.00,,,0.08,weatherlink.com 1.10,2013-06-10 00:32:00,
2013-06-09 20:47:00,58.0,53.0,30.12,NE,34,0.0,1.0,83,0.00,,,0.08,weatherlink.com 1.10,2013-06-10 00:47:00,
2013-06-09 21:02:00,57.4,53.0,30.13,NE,34,0.0,0.0,84,0.00,,,0.08,weatherlink.com 1.10,2013-06-10 01:02:00,
2013-06-09 21:17:00,56.9,52.0,30.14,NE,34,0.0,0.0,83,0.00,,,0.08,weatherlink.com 1.10,2013-06-10 01:17:00,
2013-06-09 21:33:00,56.5,52.0,30.14,NE,34,0.0,1.0,84,0.00,,,0.08,weatherlink.com 1.10,2013-06-10 01:33:00,
2013-06-09 21:48:00,56.1,51.0,30.14,NE,34,1.0,1.0,84,0.00,,,0.08,weatherlink.com 1.10,2013-06-10 01:48:00,
2013-06-09 22:03:00,55.8,51.0,30.15,ENE,59,1.0,1.0,84,0.00,,,0.08,weatherlink.com 1.10,2013-06-10 02:03:00,
2013-06-09 22:18:00,55.8,51.0,30.16,ENE,59,1.0,1.0,83,0.00,,,0.08,weatherlink.com 1.10,2013-06-10 02:18:00,
2013-06-09 22:33:00,55.9,51.0,30.16,ENE,59,0.0,1.0,84,0.00,,,0.08,weatherlink.com 1.10,2013-06-10 02:33:00,
2013-06-09 22:48:00,56.3,51.0,30.17,ENE,59,1.0,1.0,83,0.00,,,0.08,weatherlink.com 1.10,2013-06-10 02:48:00,
2013-06-09 23:03:00,55.8,51.0,30.17,ENE,59,0.0,1.0,83,0.00,,,0.08,weatherlink.com 1.10,2013-06-10 03:03:00,
2013-06-09 23:18:00,55.3,51.0,30.17,ENE,59,0.0,1.0,86,0.00,,,0.08,weatherlink.com 1.10,2013-06-10 03:18:00,
2013-06-09 23:33:00,55.1,51.0,30.18,ENE,59,1.0,1.0,85,0.00,,,0.08,weatherlink.com 1.10,2013-06-10 03:33:00,
2013-06-09 23:48:00,54.7,50.0,30.17,ENE,59,1.0,1.0,84,0.00,,,0.08,weatherlink.com 1.10,2013-06-10 03:48:00,